sat.trackr.live / text

‹ back to catalog

SDGSAT 1

NORAD 49387 · 2021-100A

PAYLOAD ACTIVE UNKNOWN

§ Identity

Operator
Country
PRC
Launch date
2021-11-05
Launch site
TAISC
Launch vehicle
Mass (kg)
RCS (m²)

External: N2YO · Heavens-Above · Gunter

§ Orbital elements

Epoch: 2026-09-20T04:51:25.670016Z

Period
94.77 min
Inclination
97.2547°
Eccentricity
0.0007978
Mean motion
15.19497268 rev/d
Perigee alt
501.9 km
Apogee alt
512.9 km
Semi-major
6,885.5 km
B*
5.6338e-5
RAAN
306.4942°
Arg perigee
305.9447°
Mean anomaly
54.1048°
Rev number
27,034

§ Raw data

SDGSAT 11 49387U 21100A   26263.20238044  .00001131  00000+0  56338-4 0  99912 49387  97.2547 306.4942 0007978 305.9447  54.1048 15.19497268270348

JSON: /api/v1/satellites/49387 · /tle

For live sub-satellite position, see the globe view (requires WebGL).

§ Visibility from observer

Set your observer location to see the next 7 days of passes ≥ 10°. The values pass through the URL so the page stays shareable.

No JS? Fill the form by hand. The geolocation button needs JavaScript.

§ Radio — SatNOGS DB

ModeDescriptionDownlinkUplink
FM S-band telemetry 2.210 GHz

1 transmitter · refreshed weekly from db.satnogs.org